GW5223 Weather Reports


time (UTC)temp
C
wind
direction
speed
KPH
gust
KPH
rain 1hr
cm
rain 24hr
cm
rain mn
cm
humidity
%
barometer
mb
20260506202804 20 228 4.8 24.1 0.00 0.13 0.13 79 1006.6
20260506202306 19 201 3.2 14.5 0.00 0.13 0.13 80 1006.5
20260506201804 19 186 1.6 4.8 0.00 0.13 0.13 80 1006.6
20260506201304 19 239 3.2 11.3 0.00 0.13 0.13 80 1006.6
20260506200804 19 322 1.6 11.3 0.00 0.13 0.13 81 1006.7
20260506200304 18 208 3.2 11.3 0.00 0.13 0.13 81 1006.8
20260506195804 18 173 3.2 11.3 0.00 0.13 0.13 81 1006.9
20260506195306 18 228 3.2 4.8 0.00 0.13 0.13 82 1006.9
20260506194804 18 73 1.6 4.8 0.00 0.13 0.13 81 1007.0
20260506194304 18 213 1.6 4.8 0.00 0.13 0.13 81 1007.0
20260506193804 18 186 1.6 4.8 0.00 0.13 0.13 81 1007.1
20260506193304 18 192 1.6 9.7 0.00 0.13 0.13 81 1007.3
20260506192803 18 178 3.2 11.3 0.00 0.13 0.13 81 1007.4
20260506192305 18 171 3.2 11.3 0.00 0.13 0.13 81 1007.4
20260506191305 18 262 0.0 1.6 0.00 0.13 0.13 81 1007.4
20260506190804 18 292 3.2 22.5 0.00 0.13 0.13 80 1007.5
20260506190304 18 196 4.8 16.1 0.00 0.13 0.13 80 1007.4
20260506185804 18 226 1.6 22.5 0.00 0.13 0.13 81 1007.4
20260506185306 18 179 3.2 14.5 0.00 0.13 0.13 80 1007.5
20260506184805 18 199 3.2 25.7 0.00 0.13 0.13 80 1007.6
20260506183804 18 194 4.8 16.1 0.00 0.13 0.13 80 1007.6
20260506183304 18 227 1.6 9.7 0.00 0.13 0.13 81 1007.6
20260506182805 18 174 3.2 14.5 0.00 0.13 0.13 80 1007.5
20260506182306 18 226 3.2 19.3 0.00 0.13 0.13 81 1007.5
20260506181804 18 192 8.0 25.7 0.00 0.13 0.13 80 1007.5
20260506180805 18 168 4.8 12.9 0.00 0.13 0.13 81 1007.7
20260506175804 18 211 6.4 22.5 0.00 0.13 0.13 81 1007.7
20260506175306 18 219 3.2 14.5 0.00 0.13 0.13 81 1007.8
20260506174304 18 209 6.4 12.9 0.00 0.13 0.13 80 1007.9
20260506173804 18 231 6.4 27.4 0.00 0.13 0.13 80 1008.0
20260506172804 19 195 4.8 22.5 0.03 0.13 0.13 82 1007.9
20260506172307 19 186 4.8 20.9 0.03 0.13 0.13 82 1007.8
20260506171803 19 237 3.2 8.0 0.03 0.13 0.13 83 1007.7
20260506171303 19 173 3.2 11.3 0.05 0.13 0.13 84 1007.6
20260506170804 19 137 3.2 8.0 0.05 0.13 0.13 84 1007.7
20260506170304 18 176 3.2 8.0 0.05 0.13 0.13 85 1007.9
20260506165804 18 179 0.0 4.8 0.08 0.13 0.13 85 1007.9
20260506165305 18 194 1.6 8.0 0.08 0.13 0.13 85 1008.0
20260506164805 18 183 1.6 9.7 0.08 0.13 0.13 85 1008.0
20260506164304 18 173 1.6 4.8 0.10 0.13 0.13 84 1008.2
20260506163803 18 164 1.6 4.8 0.10 0.13 0.13 84 1008.5
20260506163304 18 147 0.0 4.8 0.10 0.13 0.13 84 1008.6
20260506161804 18 202 3.2 11.3 0.10 0.10 0.10 83 1009.2
20260506161304 18 205 1.6 9.7 0.08 0.08 0.08 83 1009.3
20260506160804 18 193 1.6 4.8 0.08 0.08 0.08 82 1009.3
20260506160304 18 172 1.6 4.8 0.08 0.08 0.08 82 1009.4
20260506155804 18 224 1.6 4.8 0.05 0.05 0.05 80 1009.4
20260506155306 18 217 0.0 4.8 0.05 0.05 0.05 79 1009.5
20260506154303 19 166 1.6 4.8 0.03 0.03 0.03 76 1009.4
20260506153804 20 234 3.2 9.7 0.03 0.03 0.03 73 1009.4
20260506153305 20 164 1.6 11.3 0.03 0.03 0.03 71 1009.3
20260506152804 20 238 4.8 19.3 0.00 0.00 0.00 69 1009.2
20260506152305 20 195 3.2 16.1 0.00 0.00 0.00 67 1009.1
20260506151804 20 188 4.8 12.9 0.00 0.00 0.00 67 1009.2
20260506151304 20 193 4.8 20.9 0.00 0.00 0.00 68 1009.1
20260506150804 20 312 3.2 8.0 0.00 0.00 0.00 68 1009.2
20260506145804 20 207 6.4 16.1 0.00 0.00 0.00 67 1009.3
20260506145306 20 261 3.2 11.3 0.00 0.00 0.00 66 1009.4
20260506144804 20 184 4.8 11.3 0.00 0.00 0.00 65 1009.3
20260506144304 20 215 3.2 12.9 0.00 0.00 0.00 66 1009.4
20260506143805 20 176 4.8 14.5 0.00 0.00 0.00 65 1009.4
20260506143304 20 177 3.2 19.3 0.00 0.00 0.00 65 1009.4
20260506142804 21 233 4.8 19.3 0.00 0.00 0.00 65 1009.3
20260506142306 21 223 4.8 19.3 0.00 0.00 0.00 65 1009.4
20260506141804 21 158 4.8 16.1 0.00 0.00 0.00 65 1009.4
20260506141304 21 264 3.2 9.7 0.00 0.00 0.00 67 1009.4
20260506140805 20 287 1.6 9.7 0.00 0.00 0.00 68 1009.3
20260506140303 20 188 3.2 12.9 0.00 0.00 0.00 67 1009.3
20260506135805 20 213 4.8 16.1 0.00 0.00 0.00 67 1009.3
20260506135306 20 210 3.2 14.5 0.00 0.00 0.00 68 1009.4
20260506134804 20 233 3.2 9.7 0.00 0.00 0.00 68 1009.3
20260506134305 20 167 3.2 14.5 0.00 0.00 0.00 67 1009.3
20260506133804 20 275 4.8 19.3 0.00 0.00 0.00 67 1009.4
20260506132804 20 232 8.0 22.5 0.00 0.00 0.00 67 1009.3
20260506132307 20 178 4.8 16.1 0.00 0.00 0.00 67 1009.3
20260506131804 20 254 3.2 11.3 0.00 0.00 0.00 68 1009.5
20260506130804 20 172 3.2 16.1 0.00 0.00 0.00 69 1009.6
20260506125804 20 206 4.8 14.5 0.00 0.00 0.00 68 1009.5
20260506125306 20 172 3.2 20.9 0.00 0.00 0.00 69 1009.5
20260506124805 20 194 4.8 19.3 0.00 0.00 0.00 69 1009.6
20260506124305 20 182 6.4 19.3 0.00 0.00 0.00 69 1009.4
20260506122804 19 181 8.0 25.7 0.00 0.00 0.00 71 1009.3
20260506122306 19 164 3.2 14.5 0.00 0.00 0.00 72 1009.2
20260506121804 18 181 6.4 19.3 0.00 0.00 0.00 72 1009.3
20260506121304 18 188 9.7 27.4 0.00 0.00 0.00 72 1009.4
20260506120303 18 204 8.0 19.3 0.00 0.00 0.00 72 1009.4
20260506115803 18 209 9.7 32.2 0.00 0.00 0.00 72 1009.4
20260506114804 18 175 6.4 22.5 0.00 0.00 0.00 72 1009.5
20260506114304 18 174 4.8 14.5 0.00 0.00 0.00 73 1009.5
20260506113804 18 153 8.0 19.3 0.00 0.00 0.00 73 1009.5
20260506113305 18 203 8.0 19.3 0.00 0.00 0.00 73 1009.6
20260506112805 18 217 6.4 16.1 0.00 0.00 0.00 73 1009.7
20260506112306 18 185 8.0 19.3 0.00 0.00 0.00 73 1009.5
20260506111804 18 177 8.0 22.5 0.00 0.00 0.00 74 1009.5
20260506110804 18 191 8.0 19.3 0.00 0.00 0.00 75 1009.5
20260506105804 18 183 4.8 22.5 0.00 0.00 0.00 75 1009.6
20260506105305 18 190 6.4 19.3 0.00 0.00 0.00 76 1009.5
20260506104804 18 179 4.8 19.3 0.00 0.00 0.00 76 1009.4
20260506104304 17 185 4.8 19.3 0.00 0.00 0.00 77 1009.3
20260506103804 17 170 4.8 19.3 0.00 0.00 0.00 77 1009.3
20260506103305 17 181 3.2 20.9 0.00 0.00 0.00 77 1009.3
20260506102804 17 198 9.7 19.3 0.00 0.00 0.00 77 1009.3
20260506102305 17 184 4.8 20.9 0.00 0.00 0.00 78 1009.4
20260506101304 17 180 4.8 19.3 0.00 0.00 0.00 78 1009.5
20260506100804 17 175 4.8 16.1 0.00 0.00 0.00 77 1009.4
20260506100304 17 171 1.6 16.1 0.00 0.00 0.00 77 1009.4
20260506095804 17 190 4.8 19.3 0.00 0.00 0.00 77 1009.3
20260506095305 17 181 6.4 19.3 0.00 0.00 0.00 77 1009.3
20260506094804 17 174 8.0 19.3 0.00 0.00 0.00 77 1009.3
20260506094304 17 189 8.0 19.3 0.00 0.00 0.00 77 1009.2
20260506093304 17 175 6.4 19.3 0.00 0.00 0.00 77 1009.2
20260506092804 17 180 9.7 19.3 0.00 0.00 0.00 78 1009.2
20260506091804 17 195 4.8 19.3 0.00 0.00 0.00 78 1009.2
20260506091304 17 153 4.8 11.3 0.00 0.00 0.00 78 1009.4
20260506090805 17 186 3.2 11.3 0.00 0.00 0.00 78 1009.4
20260506090304 17 183 6.4 19.3 0.00 0.00 0.00 78 1009.4
20260506085804 17 170 4.8 12.9 0.00 0.00 0.00 78 1009.4
20260506085306 17 172 3.2 19.3 0.00 0.00 0.00 78 1009.3
20260506084805 17 172 4.8 16.1 0.00 0.00 0.00 78 1009.4
20260506084304 17 187 6.4 16.1 0.00 0.00 0.00 78 1009.5
20260506083804 17 175 6.4 19.3 0.00 0.00 0.00 78 1009.5
20260506083304 17 179 4.8 24.1 0.00 0.00 0.00 78 1009.5
20260506082804 17 173 6.4 12.9 0.00 0.00 0.00 78 1009.5
20260506082305 17 201 4.8 14.5 0.00 0.00 0.00 78 1009.5
20260506081804 18 163 4.8 12.9 0.00 0.00 0.00 77 1009.5
20260506081304 18 193 3.2 9.7 0.00 0.00 0.00 77 1009.6
20260506080305 18 164 3.2 12.9 0.00 0.00 0.00 76 1009.6
20260506072804 18 182 4.8 12.9 0.00 0.00 0.00 76 1009.6
20260506072306 18 200 4.8 14.5 0.00 0.00 0.00 75 1009.6
20260506071805 18 211 3.2 12.9 0.00 0.00 0.00 75 1009.6
20260506070804 18 173 4.8 19.3 0.00 0.00 0.00 75 1009.7
20260506070305 18 183 4.8 12.9 0.00 0.00 0.00 75 1009.7
20260506062306 18 179 4.8 12.9 0.00 0.00 0.00 74 1009.8
20260506061805 18 177 1.6 9.7 0.00 0.00 0.00 73 1009.8
20260506060804 19 184 8.0 19.3 0.00 0.00 0.00 72 1009.9
20260506060304 19 224 4.8 11.3 0.00 0.00 0.00 72 1009.9
20260506051304 19 178 4.8 19.3 0.00 0.00 0.00 70 1010.2
20260506050804 19 182 1.6 9.7 0.00 0.00 0.00 70 1010.3
20260506050305 19 182 1.6 8.0 0.00 0.00 0.00 69 1010.3
20260506044805 19 168 3.2 11.3 0.00 0.00 0.00 68 1010.4
20260506044304 19 187 6.4 24.1 0.00 0.00 0.00 68 1010.5
20260506043804 19 176 3.2 12.9 0.00 0.00 0.00 68 1010.4
20260506043304 20 172 3.2 11.3 0.00 0.00 0.00 67 1010.5
20260506042804 20 214 4.8 19.3 0.00 0.00 0.00 67 1010.5
20260506042305 20 194 4.8 12.9 0.00 0.00 0.00 67 1010.5
20260506041805 20 212 4.8 14.5 0.00 0.00 0.00 67 1010.5
20260506041304 20 191 1.6 19.3 0.00 0.00 0.00 66 1010.4
20260506040908 20 171 4.8 14.5 0.00 0.00 0.00 66 1010.3
20260506040305 20 157 3.2 14.5 0.00 0.00 0.00 66 1010.3
20260506035804 20 168 4.8 14.5 0.00 0.00 0.00 66 1010.2
20260506034804 20 183 6.4 14.5 0.00 0.00 0.00 65 1010.2
20260506034304 20 220 3.2 12.9 0.00 0.00 0.00 64 1010.2
20260506033805 20 169 3.2 11.3 0.00 0.00 0.00 64 1010.2
20260506033304 20 157 3.2 12.9 0.00 0.00 0.00 64 1010.2
20260506032805 20 168 3.2 14.5 0.00 0.00 0.00 64 1010.2
20260506032305 20 187 8.0 16.1 0.00 0.00 0.00 63 1010.2
20260506031804 20 204 3.2 19.3 0.00 0.00 0.00 63 1010.3
20260506031305 20 213 6.4 14.5 0.00 0.00 0.00 62 1010.3
20260506030803 20 190 6.4 16.1 0.00 0.00 0.00 62 1010.2
20260506025804 20 174 8.0 16.1 0.00 0.00 0.00 62 1010.3
20260506025305 20 177 4.8 9.7 0.00 0.00 0.00 61 1010.2
20260506024804 20 174 4.8 11.3 0.00 0.00 0.00 61 1010.3
20260506024304 20 195 8.0 22.5 0.00 0.00 0.00 60 1010.3
20260506023805 21 172 4.8 11.3 0.00 0.00 0.00 60 1010.3
20260506022804 21 181 9.7 22.5 0.00 0.00 0.00 60 1010.3
20260506022306 21 176 4.8 12.9 0.00 0.00 0.00 60 1010.3
20260506021804 21 233 4.8 11.3 0.00 0.00 0.00 59 1010.3
20260506020804 21 182 4.8 9.7 0.00 0.00 0.00 59 1010.2
20260506020305 21 188 4.8 12.9 0.00 0.00 0.00 59 1010.3
20260506015804 21 178 8.0 19.3 0.00 0.00 0.00 59 1010.3
20260506015306 21 180 4.8 19.3 0.00 0.00 0.00 59 1010.3
20260506014804 21 177 6.4 20.9 0.00 0.00 0.00 59 1010.2
20260506014304 21 189 6.4 24.1 0.00 0.00 0.00 59 1010.1
20260506013804 21 191 3.2 9.7 0.00 0.00 0.00 59 1010.1
20260506013304 21 178 8.0 16.1 0.00 0.00 0.00 58 1010.0
20260506012804 21 190 4.8 16.1 0.00 0.00 0.00 58 1010.1
20260506011804 21 197 8.0 27.4 0.00 0.00 0.00 57 1010.0
20260506011304 21 176 4.8 14.5 0.00 0.00 0.00 57 1009.9
20260506010306 22 171 4.8 16.1 0.00 0.00 0.00 56 1009.8
20260506005804 22 207 8.0 20.9 0.00 0.00 0.00 55 1009.7
20260506005306 22 197 3.2 14.5 0.00 0.00 0.00 54 1009.7
20260506004304 22 177 8.0 19.3 0.00 0.00 0.00 52 1009.6
20260506003805 23 183 4.8 11.3 0.00 0.00 0.00 50 1009.6
20260506003304 23 183 6.4 16.1 0.00 0.00 0.00 48 1009.5
20260506002804 23 176 6.4 12.9 0.00 0.00 0.00 46 1009.3
20260506002306 23 215 3.2 14.5 0.00 0.00 0.00 46 1009.3
20260506000804 24 178 8.0 24.1 0.00 0.00 0.00 44 1009.1
20260506000304 24 192 4.8 19.3 0.00 0.00 0.00 43 1009.0
20260505235804 24 180 6.4 20.9 0.00 0.00 0.00 43 1009.0
20260505235305 24 175 6.4 16.1 0.00 0.00 0.00 43 1009.0
20260505234804 24 171 4.8 11.3 0.00 0.00 0.00 42 1008.9
20260505234304 25 290 1.6 8.0 0.00 0.00 0.00 42 1008.9
20260505233804 25 235 4.8 12.9 0.00 0.00 0.00 41 1008.8
20260505232804 25 201 3.2 19.3 0.00 0.00 0.00 41 1008.7
20260505232305 25 218 8.0 25.7 0.00 0.00 0.00 40 1008.7
20260505231804 25 221 6.4 12.9 0.00 0.00 0.00 40 1008.7
20260505231304 25 201 8.0 14.5 0.00 0.00 0.00 41 1008.7
20260505230804 25 157 3.2 11.3 0.00 0.00 0.00 41 1008.6
20260505230304 26 201 1.6 12.9 0.00 0.00 0.00 40 1008.6
20260505225804 26 309 4.8 20.9 0.00 0.00 0.00 39 1008.5
20260505225306 26 180 4.8 14.5 0.00 0.00 0.00 38 1008.4
20260505224304 26 193 4.8 14.5 0.00 0.00 0.00 38 1008.3
20260505223806 26 221 4.8 12.9 0.00 0.00 0.00 37 1008.4
20260505223305 26 199 6.4 19.3 0.00 0.00 0.00 36 1008.2
20260505222804 26 193 6.4 16.1 0.00 0.00 0.00 35 1008.2
20260505222306 26 219 8.0 19.3 0.00 0.00 0.00 34 1008.0
20260505221805 27 206 8.0 22.5 0.00 0.00 0.00 33 1008.1
20260505221303 27 205 8.0 22.5 0.00 0.00 0.00 33 1008.2
20260505220804 27 186 3.2 27.4 0.00 0.00 0.00 32 1008.1
20260505220305 27 310 3.2 19.3 0.00 0.00 0.00 32 1007.9
20260505215804 27 187 9.7 25.7 0.00 0.00 0.00 31 1007.9
20260505215305 27 201 8.0 27.4 0.00 0.00 0.00 31 1008.0
20260505214804 28 204 4.8 16.1 0.00 0.00 0.00 31 1007.9
20260505214304 28 222 3.2 11.3 0.00 0.00 0.00 32 1008.0
20260505213804 28 162 4.8 14.5 0.00 0.00 0.00 30 1007.8
20260505213305 28 232 4.8 32.2 0.00 0.00 0.00 30 1008.0
20260505212805 28 208 4.8 16.1 0.00 0.00 0.00 30 1008.0
20260505212305 28 195 8.0 29.0 0.00 0.00 0.00 30 1008.0
20260505211804 28 207 6.4 14.5 0.00 0.00 0.00 28 1008.0
20260505211305 28 190 6.4 16.1 0.00 0.00 0.00 29 1007.9
20260505210804 28 228 4.8 19.3 0.00 0.00 0.00 29 1007.9
20260505205805 28 226 9.7 24.1 0.00 0.00 0.00 27 1007.8
20260505205305 29 221 3.2 19.3 0.00 0.00 0.00 29 1007.8
20260505204805 29 325 4.8 16.1 0.00 0.00 0.00 29 1007.9
20260505204306 29 209 8.0 24.1 0.00 0.00 0.00 28 1007.7
20260505203804 29 198 4.8 20.9 0.00 0.00 0.00 29 1007.8
20260505203304 29 197 8.0 29.0 0.00 0.00 0.00 29 1007.8